LEO VANTAGE 1

Last updated on Fri Dec 29 2023 00:03:04 GMT+0000 (Coordinated Universal Time)

1 43113U 18004C 23361.90377845 .00003359 00000+0 26246-3 0 9995 2 43113 99.2778 148.9577 0383505 308.9918 47.7695 14.58485944305490

Satellite not in orbit

LEO VANTAGE 1